Regional Weather Roundup
Issued by NWS

Home | Current Version | Previous Version | Text Only | Print | Product List | Glossary Off
Versions: 1 2 3 4 5 6 7 8 9 10 11 12 13 14 15 16 17 18 19 20 21 22 23 24 25 26 27 28 29 30 31 32 33 34 35 36 37 38 39 40 41 42 43 44 45 46 47 48 49 50

000
ASUS43 KDTX 292001
RWRMI
MICHIGAN HOURLY REGIONAL WEATHER ROUNDUP
NATIONAL WEATHER SERVICE DETROIT/PONTIAC MI
400 PM EDT WED MAR 29 2017

NOTE: "FAIR" INDICATES FEW OR NO CLOUDS BELOW 12,000 FEET WITH NO
SIGNIFICANT WEATHER AND/OR OBSTRUCTION TO VISIBILITY.

MIZ047>049-052>055-059>063-066>070-074>076-081>083-292100-
SOUTHEAST LOWER MICHIGAN

CITY           SKY/WX    TMP DP  RH WIND       PRES   REMARKS
ADRIAN         CLOUDY    53  35  50 E12       30.25S
ALMA           CLOUDY    48  33  57 NE15      30.29S
ANN ARBOR      CLOUDY    55  32  41 E6        30.23F
BAD AXE        MOSUNNY   42  32  67 NE12      30.32F
CARO           MOSUNNY   47  37  68 N9G18     30.28F
DETROIT CITY   MOSUNNY   55  34  45 E12       30.25F
DETROIT        CLOUDY    55  30  38 NE9G16    30.26F
FLINT          CLOUDY    51  36  56 N15       30.27F
GROSSE ILE     MOSUNNY   44  36  71 S7        30.25F
HILLSDALE      MOSUNNY   54  32  43 E12       30.23S
HOWELL         CLOUDY    53  28  38 NE7       30.24F

CITY           SKY/WX    TMP DP  RH WIND       PRES   REMARKS
JACKSON        CLOUDY    56  29  35 E9        30.24S
LAMBERTVILLE   MOSUNNY   53  29  41 E10G17    30.25S
LANSING        CLOUDY    54  31  41 N7        30.26F
LAPEER         FAIR      53  32  44 NE7       30.26F
MASON          CLOUDY    53  36  52 NE6       30.25F
MONROE         MOSUNNY   51  35  54 E8        30.25F
PONTIAC        CLOUDY    55  29  36 N8        30.22F
PORT HOPE        N/A     37  32  82 N7        30.33R WCI  32
PORT HURON     SUNNY     46  32  57 N13       30.28S
TRI CITIES     CLOUDY    43  34  70 NE15      30.32F
MIDLAND        FAIR      42  32  66 NE13G18   30.32R
TROY           PTSUNNY   56  27  32 NE7       30.26F
SAGINAW HB     CLOUDY    43  32  65 N14       30.31S
$$
MIZ043>046-050>051-056>058-064>065-071>073-077>080-292100-
SOUTHWEST LOWER MICHIGAN

CITY           SKY/WX    TMP DP  RH WIND       PRES   REMARKS
BATTLE CREEK   MOSUNNY   54  32  43 E8        30.23F
BENTON HARBOR  MOSUNNY   55  32  41 E14G20    30.20F
BIG RAPIDS     PTSUNNY   52  22  31 E5        30.26R
COLDWATER      SUNNY     55  31  39 E7G18     30.22S
FREMONT        FAIR      54  25  32 E3        30.24F
HOLLAND        MOSUNNY   53  34  48 E12       30.24F
GRAND RAPIDS   CLOUDY    52  36  54 E13       30.26S
KALAMAZOO      PTSUNNY   56  28  34 E9        30.23F
LUDINGTON      PTSUNNY   48  33  57 N6        30.27F
MARSHALL       MOSUNNY   56  31  38 E5        30.23S
MOUNT PLEASANT CLOUDY    48  34  57 E14       30.28S
MUSKEGON       CLOUDY    52  34  50 NW9       30.25F
SOUTH HAVEN    CLOUDY    54  31  42 E10G18    30.21F
$$
MIZ016>042-292100-
NORTHERN LOWER MICHIGAN

CITY           SKY/WX    TMP DP  RH WIND       PRES   REMARKS
ALPENA         CLOUDY    40  28  62 SE10      30.37R WCI  33
BEAVER ISLAND  CLOUDY    40  24  52 E9        30.35S WCI  34
BELLAIRE       PTSUNNY   49  27  43 SE6       30.30S
CADILLAC       CLOUDY    50  23  35 CALM      30.25S
CHARLEVOIX     PTSUNNY   38  31  76 N8        30.35S WCI  32
FRANKFORT      PTSUNNY   42  33  69 N9        30.31R
GAYLORD        CLOUDY    46  26  45 VRB5      30.28F
HARBOR SPRINGS CLOUDY    43  29  58 NE9       30.32F
HOUGHTON LAKE  CLOUDY    50  27  40 E7        30.28S
MANISTEE       PTSUNNY   44  35  70 NW5       30.29S
OSCODA         CLOUDY    39  26  59 NE16      30.35S WCI  31
PELLSTON       CLOUDY    43  25  49 E13       30.34F
ROGERS CITY    CLOUDY    37  25  61 E8        30.38S WCI  31
TRAVERSE CITY  CLOUDY    41  33  73 N5        30.31R
$$
MIZ007>008-015-292100-
EASTERN UPPER MICHIGAN

CITY           SKY/WX    TMP DP  RH WIND       PRES   REMARKS
KINROSS        CLOUDY    42  18  37 SE12      30.35S
MACKINAC ISLAN CLOUDY    36  20  52 SE8G21    30.35S WCI  30
NEWBERRY       PTSUNNY   41  23  48 NE8       30.34R
S. S. MARIE    CLOUDY    44  20  38 SE6       30.35S
MUNISING         N/A     33  27  78 N12       30.36S WCI  24
$$
MIZ004>006-011>014-085-292100-
CENTRAL UPPER MICHIGAN

CITY           SKY/WX    TMP DP  RH WIND       PRES   REMARKS
MANISTIQUE     MOSUNNY   38  29  71 CALM      30.35R
ESCANABA       PTSUNNY   38  29  70 S9        30.35R WCI  31
MENOMINEE      CLOUDY    38  30  73 E9        30.35F WCI  31
SAWYER-GWINN   SUNNY     34  25  69 N6        30.35R WCI  29
$$
MIZ001>003-009>011-084-292100-
WESTERN UPPER MICHIGAN

CITY           SKY/WX    TMP DP  RH WIND       PRES   REMARKS
IRON MOUNTAIN  PTSUNNY   46  25  43 VRB3      30.30F
HOUGHTON       PTSUNNY   34  25  69 E13       30.34F WCI  25
COPPER HARBOR    N/A     36  24  62 SE8       30.37F WCI  30
IRONWOOD       CLOUDY    50  30  46 E8        30.26F
$$

ABBREVIATIONS USED IN REMARKS
   TC - TEMPERATURE IN CELSIUS
  WCI - WIND CHILL INDEX
   HX - HEAT INDEX
  VSB - VISIBILITY





USA.gov is the U.S. government's official web portal to all federal, state and local government web resources and services.